Private Wetterstation Wechselburg
Wetterdaten: Dienstag, 22.11.2011
Datum Zeit Temp. +2m Bodentemp. Temp.+5cm Temp. Wind Windchill X Diff Temp. Feuchte +2m Feuchte +5cm Sonnenschein Luftdruck Regen Wind Richtung Richtung Sonnenschein UV Taupunkt Windchill Windben
22.11.2011 00:00 -0,3 C 11,0 C 0,5 C -0,6 C -1,1 C 0,0 C 91 % 91 % 0 % 1020,2 hPa 0,0 l/m 0,0 km/h (0 Bft) SO 135 0 min 0,0 UV-I -1,6 C -1,1 C 0,0 km/h (0 Bft)
22.11.2011 00:10 -0,5 C 11,0 C 0,4 C -0,8 C -1,4 C 0,0 C 90 % 91 % 0 % 1020,2 hPa 0,0 l/m 0,0 km/h (0 Bft) N 0 0 min 0,0 UV-I -1,9 C -1,4 C 0,0 km/h (0 Bft)
22.11.2011 00:20 -0,5 C 11,0 C 0,3 C -0,8 C -1,5 C 0,0 C 90 % 91 % 0 % 1020,6 hPa 0,0 l/m 0,0 km/h (0 Bft) SO 135 0 min 0,0 UV-I -1,9 C -1,5 C 0,0 km/h (0 Bft)
22.11.2011 00:25 -0,7 C 11,0 C 0,3 C -1,0 C -1,5 C 0,0 C 90 % 91 % 0 % 1020,6 hPa 0,0 l/m 0,0 km/h (0 Bft) SO 135 0 min 0,0 UV-I -2,1 C -1,5 C 0,0 km/h (0 Bft)
22.11.2011 00:30 -0,7 C 11,0 C 0,3 C -1,0 C -1,5 C 0,0 C 90 % 91 % 0 % 1020,6 hPa 0,0 l/m 0,0 km/h (0 Bft) SO 135 0 min 0,0 UV-I -2,1 C -1,5 C 0,0 km/h (0 Bft)
22.11.2011 00:35 -0,7 C 11,0 C 0,1 C -0,9 C -1,4 C 0,0 C 91 % 91 % 0 % 1020,6 hPa 0,0 l/m 0,0 km/h (0 Bft) SO 135 0 min 0,0 UV-I -2,0 C -1,4 C 0,0 km/h (0 Bft)
22.11.2011 00:40 -0,7 C 11,0 C 0,2 C -0,9 C -1,4 C 0,0 C 91 % 91 % 0 % 1020,1 hPa 0,0 l/m 0,0 km/h (0 Bft) SO 135 0 min 0,0 UV-I -2,0 C -1,4 C 0,0 km/h (0 Bft)
22.11.2011 00:45 -0,7 C 11,0 C 0,3 C -1,0 C -1,5 C 0,0 C 91 % 91 % 0 % 1020,1 hPa 0,0 l/m 0,0 km/h (0 Bft) SO 135 0 min 0,0 UV-I -2,0 C -1,5 C 0,0 km/h (0 Bft)
22.11.2011 00:50 -0,8 C 10,9 C 0,1 C -1,1 C -1,6 C 0,0 C 91 % 91 % 0 % 1020,1 hPa 0,0 l/m 0,0 km/h (0 Bft) SO 135 0 min 0,0 UV-I -2,1 C -1,6 C 0,0 km/h (0 Bft)
22.11.2011 00:55 -0,8 C 10,9 C 0,0 C -1,1 C -1,7 C 0,0 C 91 % 91 % 0 % 1020,1 hPa 0,0 l/m 0,0 km/h (0 Bft) SO 135 0 min 0,0 UV-I -2,1 C -1,7 C 0,0 km/h (0 Bft)
22.11.2011 01:00 -0,9 C 10,9 C 0,0 C -1,2 C -1,7 C 0,0 C 91 % 91 % 0 % 1020,2 hPa 0,0 l/m 0,0 km/h (0 Bft) SO 135 0 min 0,0 UV-I -2,2 C -1,7 C 0,0 km/h (0 Bft)
22.11.2011 01:11 -1,0 C 10,9 C 0,1 C -1,3 C -1,8 C 0,0 C 91 % 91 % 0 % 1020,2 hPa 0,0 l/m 0,0 km/h (0 Bft) N 0 0 min 0,0 UV-I -2,3 C -1,8 C 0,0 km/h (0 Bft)
22.11.2011 01:20 -1,1 C 10,9 C -0,1 C -1,3 C -1,8 C 0,0 C 91 % 91 % 0 % 1020,0 hPa 0,0 l/m 0,0 km/h (0 Bft) SO 135 0 min 0,0 UV-I -2,4 C -1,8 C 0,0 km/h (0 Bft)
22.11.2011 01:25 -1,1 C 10,9 C -0,1 C -1,3 C -1,6 C 0,0 C 91 % 91 % 0 % 1020,0 hPa 0,0 l/m 0,0 km/h (0 Bft) SO 135 0 min 0,0 UV-I -2,4 C -1,6 C 0,0 km/h (0 Bft)
22.11.2011 01:30 -1,1 C 10,9 C -0,1 C -1,3 C -1,6 C 0,0 C 91 % 91 % 0 % 1020,0 hPa 0,0 l/m 0,0 km/h (0 Bft) SO 135 0 min 0,0 UV-I -2,4 C -1,6 C 0,0 km/h (0 Bft)
22.11.2011 01:35 -1,1 C 10,9 C -0,1 C -1,3 C -1,7 C 0,0 C 91 % 91 % 0 % 1020,0 hPa 0,0 l/m 0,0 km/h (0 Bft) SO 135 0 min 0,0 UV-I -2,4 C -1,7 C 0,0 km/h (0 Bft)
22.11.2011 01:40 -1,2 C 10,9 C -0,1 C -1,4 C -1,8 C 0,0 C 91 % 91 % 0 % 1020,1 hPa 0,0 l/m 0,0 km/h (0 Bft) SO 135 0 min 0,0 UV-I -2,5 C -1,8 C 0,0 km/h (0 Bft)
22.11.2011 01:45 -1,3 C 10,8 C -0,1 C -1,5 C -1,9 C 0,0 C 91 % 91 % 0 % 1020,1 hPa 0,0 l/m 0,0 km/h (0 Bft) SO 135 0 min 0,0 UV-I -2,6 C -1,9 C 0,0 km/h (0 Bft)
22.11.2011 01:50 -1,3 C 10,8 C -0,3 C -1,5 C -1,8 C 0,0 C 91 % 91 % 0 % 1020,1 hPa 0,0 l/m 0,0 km/h (0 Bft) O-SO 112 0 min 0,0 UV-I -2,6 C -1,8 C 0,0 km/h (0 Bft)
22.11.2011 01:55 -0,9 C 10,8 C -0,4 C -1,1 C -1,6 C 0,0 C 91 % 91 % 0 % 1020,1 hPa 0,0 l/m 0,0 km/h (0 Bft) O-SO 112 0 min 0,0 UV-I -2,2 C -1,6 C 0,0 km/h (0 Bft)
22.11.2011 02:00 -0,9 C 10,8 C -0,3 C -1,1 C -1,6 C 0,0 C 92 % 91 % 0 % 1020,4 hPa 0,0 l/m 0,0 km/h (0 Bft) O-SO 112 0 min 0,0 UV-I -2,0 C -1,6 C 0,0 km/h (0 Bft)
22.11.2011 02:10 -1,1 C 10,8 C -0,3 C -1,3 C -1,7 C 0,0 C 91 % 91 % 0 % 1020,4 hPa 0,0 l/m 0,0 km/h (0 Bft) N 0 0 min 0,0 UV-I -2,4 C -1,7 C 0,0 km/h (0 Bft)
22.11.2011 02:20 -1,2 C 10,8 C -0,4 C -1,5 C -2,0 C 0,0 C 91 % 91 % 0 % 1020,1 hPa 0,0 l/m 0,0 km/h (0 Bft) SW 225 0 min 0,0 UV-I -2,5 C -2,0 C 0,0 km/h (0 Bft)
22.11.2011 02:25 -1,3 C 10,8 C -0,3 C -1,6 C -2,3 C 0,0 C 91 % 91 % 0 % 1020,1 hPa 0,0 l/m 0,0 km/h (0 Bft) SW 225 0 min 0,0 UV-I -2,6 C -2,3 C 0,0 km/h (0 Bft)
22.11.2011 02:30 -1,4 C 10,8 C -0,5 C -1,7 C -2,3 C 0,0 C 91 % 91 % 0 % 1020,1 hPa 0,0 l/m 0,0 km/h (0 Bft) SW 225 0 min 0,0 UV-I -2,7 C -2,3 C 0,0 km/h (0 Bft)
22.11.2011 02:35 -1,5 C 10,8 C -0,5 C -1,8 C -2,5 C 0,0 C 91 % 91 % 0 % 1020,1 hPa 0,0 l/m 0,0 km/h (0 Bft) SW 225 0 min 0,0 UV-I -2,8 C -2,5 C 0,0 km/h (0 Bft)
22.11.2011 02:40 -1,5 C 10,8 C -0,5 C -1,9 C -2,6 C 0,0 C 91 % 91 % 0 % 1019,9 hPa 0,0 l/m 0,0 km/h (0 Bft) SW 225 0 min 0,0 UV-I -2,8 C -2,6 C 0,0 km/h (0 Bft)
22.11.2011 02:45 -1,6 C 10,7 C -0,5 C -1,9 C -2,5 C 0,0 C 91 % 91 % 0 % 1019,9 hPa 0,0 l/m 0,0 km/h (0 Bft) SW 225 0 min 0,0 UV-I -2,9 C -2,5 C 0,0 km/h (0 Bft)
22.11.2011 02:50 -1,7 C 10,7 C -0,5 C -1,9 C -2,4 C 0,0 C 91 % 91 % 0 % 1019,9 hPa 0,0 l/m 0,0 km/h (0 Bft) SW 225 0 min 0,0 UV-I -3,0 C -2,4 C 0,0 km/h (0 Bft)
22.11.2011 02:55 -1,7 C 10,7 C -0,5 C -1,9 C -2,3 C 0,0 C 91 % 91 % 0 % 1019,9 hPa 0,0 l/m 0,0 km/h (0 Bft) S-SW 202 0 min 0,0 UV-I -3,0 C -2,3 C 0,0 km/h (0 Bft)
22.11.2011 03:00 -1,7 C 10,7 C -0,5 C -1,9 C -2,2 C 0,0 C 91 % 91 % 0 % 1019,9 hPa 0,0 l/m 0,0 km/h (0 Bft) SW 225 0 min 0,0 UV-I -3,0 C -2,2 C 0,0 km/h (0 Bft)
22.11.2011 03:04 -1,7 C 10,7 C -0,6 C -1,7 C -1,8 C 0,0 C 91 % 91 % 0 % 1019,9 hPa 0,0 l/m 0,0 km/h (0 Bft) SW 225 0 min 0,0 UV-I -3,0 C -1,8 C 0,0 km/h (0 Bft)
22.11.2011 03:09 -1,7 C 10,7 C -0,6 C -1,8 C -2,0 C 0,0 C 91 % 91 % 0 % 1019,9 hPa 0,0 l/m 0,0 km/h (0 Bft) SW 225 0 min 0,0 UV-I -3,0 C -2,0 C 0,0 km/h (0 Bft)
22.11.2011 03:14 -1,8 C 10,7 C -0,5 C -1,9 C -2,2 C 0,0 C 91 % 91 % 0 % 1019,9 hPa 0,0 l/m 0,0 km/h (0 Bft) SW 225 0 min 0,0 UV-I -3,1 C -2,2 C 0,0 km/h (0 Bft)
22.11.2011 03:18 -1,8 C 10,7 C -0,5 C -1,9 C -2,2 C 0,0 C 91 % 91 % 0 % 1019,9 hPa 0,0 l/m 0,0 km/h (0 Bft) SW 225 0 min 0,0 UV-I -3,1 C -2,2 C 0,0 km/h (0 Bft)
22.11.2011 03:25 -1,7 C 10,7 C -0,7 C -1,9 C -2,3 C 0,0 C 91 % 91 % 0 % 1019,9 hPa 0,0 l/m 0,0 km/h (0 Bft) SW 225 0 min 0,0 UV-I -3,0 C -2,3 C 0,0 km/h (0 Bft)
22.11.2011 03:30 -1,7 C 10,7 C -0,8 C -1,9 C -2,3 C 0,0 C 91 % 91 % 0 % 1019,9 hPa 0,0 l/m 0,0 km/h (0 Bft) SW 225 0 min 0,0 UV-I -3,0 C -2,3 C 0,0 km/h (0 Bft)
22.11.2011 03:35 -1,9 C 10,7 C -0,8 C -2,1 C -2,5 C 0,0 C 91 % 91 % 0 % 1019,9 hPa 0,0 l/m 0,0 km/h (0 Bft) SW 225 0 min 0,0 UV-I -3,2 C -2,5 C 0,0 km/h (0 Bft)
22.11.2011 03:40 -1,9 C 10,7 C -0,8 C -2,1 C -2,6 C 0,0 C 91 % 91 % 0 % 1019,6 hPa 0,0 l/m 0,0 km/h (0 Bft) SW 225 0 min 0,0 UV-I -3,2 C -2,6 C 0,0 km/h (0 Bft)
22.11.2011 03:45 -2,0 C 10,6 C -0,8 C -2,2 C -2,7 C 0,0 C 91 % 91 % 0 % 1019,6 hPa 0,0 l/m 0,0 km/h (0 Bft) SW 225 0 min 0,0 UV-I -3,3 C -2,7 C 0,0 km/h (0 Bft)
22.11.2011 03:50 -2,0 C 10,6 C -0,7 C -2,2 C -2,6 C 0,0 C 91 % 91 % 0 % 1019,6 hPa 0,0 l/m 0,0 km/h (0 Bft) W-SW 247 0 min 0,0 UV-I -3,3 C -2,6 C 0,0 km/h (0 Bft)
22.11.2011 03:55 -1,9 C 10,6 C -0,9 C -2,1 C -2,5 C 0,0 C 91 % 91 % 0 % 1019,6 hPa 0,0 l/m 0,0 km/h (0 Bft) W-SW 247 0 min 0,0 UV-I -3,2 C -2,5 C 0,0 km/h (0 Bft)
22.11.2011 04:00 -1,9 C 10,6 C -0,9 C -2,1 C -2,5 C 0,0 C 91 % 91 % 0 % 1019,8 hPa 0,0 l/m 0,0 km/h (0 Bft) S 180 0 min 0,0 UV-I -3,2 C -2,5 C 0,0 km/h (0 Bft)
22.11.2011 04:04 -1,7 C 10,6 C -0,9 C -1,9 C -2,3 C 0,0 C 91 % 91 % 0 % 1019,8 hPa 0,0 l/m 0,0 km/h (0 Bft) S 180 0 min 0,0 UV-I -3,0 C -2,3 C 0,0 km/h (0 Bft)
22.11.2011 04:09 -1,8 C 10,6 C -1,1 C -2,0 C -2,3 C 0,0 C 92 % 91 % 0 % 1019,8 hPa 0,0 l/m 0,0 km/h (0 Bft) S 180 0 min 0,0 UV-I -2,9 C -2,3 C 0,0 km/h (0 Bft)
22.11.2011 04:14 -1,8 C 10,6 C -0,9 C -1,9 C -2,2 C 0,0 C 91 % 91 % 0 % 1019,8 hPa 0,0 l/m 0,0 km/h (0 Bft) S 180 0 min 0,0 UV-I -3,1 C -2,2 C 0,0 km/h (0 Bft)
22.11.2011 04:18 -1,8 C 10,6 C -0,9 C -1,9 C -2,2 C 0,0 C 91 % 91 % 0 % 1019,8 hPa 0,0 l/m 0,0 km/h (0 Bft) S 180 0 min 0,0 UV-I -3,1 C -2,2 C 0,0 km/h (0 Bft)
22.11.2011 04:25 -1,7 C 10,6 C -0,9 C -1,9 C -2,3 C 0,0 C 92 % 91 % 0 % 1019,8 hPa 0,0 l/m 0,0 km/h (0 Bft) W-SW 247 0 min 0,0 UV-I -2,8 C -2,3 C 0,0 km/h (0 Bft)
22.11.2011 04:30 -1,7 C 10,6 C -0,9 C -1,9 C -2,4 C 0,0 C 91 % 91 % 0 % 1019,8 hPa 0,0 l/m 0,0 km/h (0 Bft) W-SW 247 0 min 0,0 UV-I -3,0 C -2,4 C 0,0 km/h (0 Bft)
22.11.2011 04:35 -1,9 C 10,6 C -1,1 C -2,1 C -2,5 C 0,0 C 91 % 91 % 0 % 1019,8 hPa 0,0 l/m 0,0 km/h (0 Bft) W-SW 247 0 min 0,0 UV-I -3,2 C -2,5 C 0,0 km/h (0 Bft)
22.11.2011 04:40 -2,0 C 10,6 C -1,1 C -2,2 C -2,5 C 0,0 C 91 % 91 % 0 % 1020,0 hPa 0,0 l/m 0,0 km/h (0 Bft) W-SW 247 0 min 0,0 UV-I -3,3 C -2,5 C 0,0 km/h (0 Bft)
22.11.2011 04:45 -2,1 C 10,5 C -0,9 C -2,3 C -2,7 C 0,0 C 91 % 92 % 0 % 1020,0 hPa 0,0 l/m 0,0 km/h (0 Bft) W-SW 247 0 min 0,0 UV-I -3,4 C -2,7 C 0,0 km/h (0 Bft)
22.11.2011 04:50 -2,1 C 10,5 C -0,9 C -2,3 C -2,6 C 0,0 C 91 % 92 % 0 % 1020,0 hPa 0,0 l/m 0,0 km/h (0 Bft) W-SW 247 0 min 0,0 UV-I -3,4 C -2,6 C 0,0 km/h (0 Bft)
22.11.2011 04:55 -1,9 C 10,5 C -0,9 C -2,1 C -2,6 C 0,0 C 91 % 92 % 0 % 1020,0 hPa 0,0 l/m 0,0 km/h (0 Bft) W-SW 247 0 min 0,0 UV-I -3,2 C -2,6 C 0,0 km/h (0 Bft)
22.11.2011 05:00 -1,9 C 10,5 C -0,9 C -2,2 C -2,7 C 0,0 C 92 % 92 % 0 % 1019,9 hPa 0,0 l/m 0,0 km/h (0 Bft) W-SW 247 0 min 0,0 UV-I -3,0 C -2,7 C 0,0 km/h (0 Bft)
22.11.2011 05:11 -2,1 C 10,5 C -1,2 C -2,3 C -2,6 C 0,0 C 92 % 91 % 0 % 1019,9 hPa 0,0 l/m 0,0 km/h (0 Bft) N 0 0 min 0,0 UV-I -3,2 C -2,6 C 0,0 km/h (0 Bft)
22.11.2011 05:20 -2,1 C 10,5 C -1,1 C -2,3 C -2,8 C 0,0 C 92 % 92 % 0 % 1019,9 hPa 0,0 l/m 0,0 km/h (0 Bft) W-SW 247 0 min 0,0 UV-I -3,2 C -2,8 C 0,0 km/h (0 Bft)
22.11.2011 05:25 -2,1 C 10,5 C -1,1 C -2,3 C -2,8 C 0,0 C 92 % 92 % 0 % 1019,9 hPa 0,0 l/m 0,0 km/h (0 Bft) SW 225 0 min 0,0 UV-I -3,2 C -2,8 C 0,0 km/h (0 Bft)
22.11.2011 05:30 -2,1 C 10,5 C -1,2 C -2,3 C -2,8 C 0,0 C 92 % 92 % 0 % 1019,9 hPa 0,0 l/m 0,0 km/h (0 Bft) SW 225 0 min 0,0 UV-I -3,2 C -2,8 C 0,0 km/h (0 Bft)
22.11.2011 05:35 -2,1 C 10,5 C -1,2 C -2,4 C -2,9 C 0,0 C 92 % 92 % 0 % 1019,9 hPa 0,0 l/m 0,0 km/h (0 Bft) SW 225 0 min 0,0 UV-I -3,2 C -2,9 C 0,0 km/h (0 Bft)
22.11.2011 05:40 -2,1 C 10,5 C -1,2 C -2,4 C -2,9 C 0,0 C 92 % 91 % 0 % 1019,8 hPa 0,0 l/m 0,0 km/h (0 Bft) SW 225 0 min 0,0 UV-I -3,2 C -2,9 C 0,0 km/h (0 Bft)
22.11.2011 05:45 -2,1 C 10,5 C -1,2 C -2,4 C -3,0 C 0,0 C 92 % 92 % 0 % 1019,8 hPa 0,0 l/m 0,0 km/h (0 Bft) W-SW 247 0 min 0,0 UV-I -3,2 C -3,0 C 0,0 km/h (0 Bft)
22.11.2011 05:50 -2,1 C 10,4 C -1,2 C -2,4 C -2,9 C 0,0 C 92 % 92 % 0 % 1019,8 hPa 0,0 l/m 0,0 km/h (0 Bft) W-SW 247 0 min 0,0 UV-I -3,2 C -2,9 C 0,0 km/h (0 Bft)
22.11.2011 05:55 -2,1 C 10,4 C -1,2 C -2,4 C -2,9 C 0,0 C 92 % 92 % 0 % 1019,8 hPa 0,0 l/m 0,0 km/h (0 Bft) SW 225 0 min 0,0 UV-I -3,2 C -2,9 C 0,0 km/h (0 Bft)
22.11.2011 06:00 -2,1 C 10,4 C -1,3 C -2,4 C -2,9 C 0,0 C 92 % 92 % 0 % 1019,8 hPa 0,0 l/m 0,0 km/h (0 Bft) W-SW 247 0 min 0,0 UV-I -3,2 C -2,9 C 0,0 km/h (0 Bft)
22.11.2011 06:11 -2,1 C 10,4 C -1,3 C -2,3 C -2,7 C 0,0 C 92 % 92 % 0 % 1019,8 hPa 0,0 l/m 0,0 km/h (0 Bft) N 0 0 min 0,0 UV-I -3,2 C -2,7 C 0,0 km/h (0 Bft)
22.11.2011 06:20 -2,1 C 10,4 C -1,3 C -2,2 C -2,5 C 0,0 C 92 % 92 % 0 % 1019,7 hPa 0,0 l/m 0,0 km/h (0 Bft) O-NO 67 0 min 0,0 UV-I -3,2 C -2,5 C 0,0 km/h (0 Bft)
22.11.2011 06:25 -2,0 C 10,4 C -1,3 C -2,1 C -2,4 C 0,0 C 92 % 92 % 0 % 1019,7 hPa 0,0 l/m 0,0 km/h (0 Bft) O-NO 67 0 min 0,0 UV-I -3,1 C -2,4 C 0,0 km/h (0 Bft)
22.11.2011 06:30 -2,1 C 10,4 C -1,3 C -2,2 C -2,5 C 0,0 C 92 % 92 % 0 % 1019,7 hPa 0,0 l/m 0,0 km/h (0 Bft) O-NO 67 0 min 0,0 UV-I -3,2 C -2,5 C 0,0 km/h (0 Bft)
22.11.2011 06:35 -2,1 C 10,4 C -1,3 C -2,2 C -2,5 C 0,0 C 92 % 92 % 0 % 1019,7 hPa 0,0 l/m 0,0 km/h (0 Bft) O-NO 67 0 min 0,0 UV-I -3,2 C -2,5 C 0,0 km/h (0 Bft)
22.11.2011 06:40 -2,0 C 10,4 C -1,3 C -2,2 C -2,5 C 0,0 C 92 % 92 % 0 % 1020,2 hPa 0,0 l/m 0,0 km/h (0 Bft) N-NW 337 0 min 0,0 UV-I -3,1 C -2,5 C 0,0 km/h (0 Bft)
22.11.2011 06:45 -2,1 C 10,4 C -1,4 C -2,3 C -2,7 C 0,0 C 92 % 92 % 0 % 1020,2 hPa 0,0 l/m 0,0 km/h (0 Bft) N-NW 337 0 min 0,0 UV-I -3,2 C -2,7 C 0,0 km/h (0 Bft)
22.11.2011 06:50 -2,1 C 10,4 C -1,3 C -2,3 C -2,7 C 0,0 C 92 % 92 % 0 % 1020,2 hPa 0,0 l/m 0,0 km/h (0 Bft) NO 45 0 min 0,0 UV-I -3,2 C -2,7 C 0,0 km/h (0 Bft)
22.11.2011 06:55 -2,2 C 10,3 C -1,3 C -2,4 C -2,7 C 0,0 C 92 % 92 % 0 % 1020,2 hPa 0,0 l/m 0,0 km/h (0 Bft) O-NO 67 0 min 0,0 UV-I -3,3 C -2,7 C 0,0 km/h (0 Bft)
22.11.2011 07:00 -2,1 C 10,3 C -1,5 C -2,3 C -2,8 C 0,0 C 92 % 92 % 0 % 1020,1 hPa 0,0 l/m 0,0 km/h (0 Bft) O-NO 67 0 min 0,0 UV-I -3,2 C -2,8 C 0,0 km/h (0 Bft)
22.11.2011 07:12 -2,3 C 10,3 C -1,4 C -2,5 C -2,9 C 0,0 C 92 % 92 % 0 % 1020,1 hPa 0,0 l/m 0,0 km/h (0 Bft) N 0 0 min 0,0 UV-I -3,4 C -2,9 C 0,0 km/h (0 Bft)
22.11.2011 07:20 -2,1 C 10,3 C -1,4 C -2,4 C -2,9 C 0,0 C 92 % 92 % 0 % 1020,0 hPa 0,0 l/m 0,0 km/h (0 Bft) O-NO 67 0 min 0,0 UV-I -3,2 C -2,9 C 0,0 km/h (0 Bft)
22.11.2011 07:25 -2,3 C 10,3 C -1,3 C -2,5 C -2,9 C 0,0 C 92 % 92 % 0 % 1020,0 hPa 0,0 l/m 0,0 km/h (0 Bft) W 270 0 min 0,0 UV-I -3,4 C -2,9 C 0,0 km/h (0 Bft)
22.11.2011 07:30 -2,3 C 10,3 C -1,3 C -2,5 C -2,8 C 0,0 C 92 % 92 % 0 % 1020,0 hPa 0,0 l/m 0,0 km/h (0 Bft) W 270 0 min 0,0 UV-I -3,4 C -2,8 C 0,0 km/h (0 Bft)
22.11.2011 07:35 -2,3 C 10,3 C -1,5 C -2,4 C -2,6 C 0,0 C 92 % 92 % 0 % 1020,0 hPa 0,0 l/m 0,0 km/h (0 Bft) O-NO 67 0 min 0,0 UV-I -3,4 C -2,6 C 0,0 km/h (0 Bft)
22.11.2011 07:40 -2,1 C 10,3 C -1,3 C -2,3 C -2,6 C 0,0 C 92 % 92 % 0 % 1020,1 hPa 0,0 l/m 0,0 km/h (0 Bft) O-NO 67 0 min 0,0 UV-I -3,2 C -2,6 C 0,0 km/h (0 Bft)
22.11.2011 07:45 -2,1 C 10,3 C -1,5 C -2,3 C -2,7 C 0,0 C 92 % 92 % 0 % 1020,1 hPa 0,0 l/m 0,0 km/h (0 Bft) O-NO 67 0 min 0,0 UV-I -3,2 C -2,7 C 0,0 km/h (0 Bft)
22.11.2011 07:50 -2,3 C 10,3 C -1,4 C -2,5 C -2,8 C 0,0 C 92 % 92 % 0 % 1020,1 hPa 0,0 l/m 0,0 km/h (0 Bft) O-NO 67 0 min 0,0 UV-I -3,4 C -2,8 C 0,0 km/h (0 Bft)
22.11.2011 07:55 -2,3 C 10,3 C -1,3 C -2,5 C -2,9 C 0,0 C 92 % 92 % 0 % 1020,1 hPa 0,0 l/m 0,0 km/h (0 Bft) O-NO 67 0 min 0,0 UV-I -3,4 C -2,9 C 0,0 km/h (0 Bft)
22.11.2011 08:00 -2,3 C 10,3 C -1,3 C -2,5 C -2,9 C 0,0 C 92 % 92 % 0 % 1020,1 hPa 0,0 l/m 0,0 km/h (0 Bft) W-SW 247 0 min 0,0 UV-I -3,4 C -2,9 C 0,0 km/h (0 Bft)
22.11.2011 08:11 -2,3 C 10,3 C -1,3 C -2,4 C -2,7 C 0,0 C 92 % 92 % 0 % 1020,1 hPa 0,0 l/m 0,0 km/h (0 Bft) N 0 0 min 0,0 UV-I -3,4 C -2,7 C 0,0 km/h (0 Bft)
22.11.2011 08:20 -2,1 C 10,3 C -1,3 C -2,2 C -2,5 C 0,0 C 92 % 92 % 0 % 1021,0 hPa 0,0 l/m 0,0 km/h (0 Bft) W 270 0 min 0,0 UV-I -3,2 C -2,5 C 0,0 km/h (0 Bft)
22.11.2011 08:25 -2,2 C 10,2 C -1,2 C -2,2 C -2,3 C 0,0 C 92 % 92 % 0 % 1021,0 hPa 0,0 l/m 0,0 km/h (0 Bft) W-SW 247 0 min 0,0 UV-I -3,3 C -2,3 C 0,0 km/h (0 Bft)
22.11.2011 08:30 -2,1 C 10,2 C -1,2 C -2,2 C -2,3 C 0,0 C 92 % 92 % 0 % 1021,0 hPa 0,0 l/m 0,0 km/h (0 Bft) W-SW 247 0 min 0,0 UV-I -3,2 C -2,3 C 0,0 km/h (0 Bft)
22.11.2011 08:35 -2,1 C 10,2 C -0,9 C -2,2 C -2,3 C 0,0 C 92 % 92 % 0 % 1021,0 hPa 0,0 l/m 0,0 km/h (0 Bft) W-SW 247 0 min 0,0 UV-I -3,2 C -2,3 C 0,0 km/h (0 Bft)
22.11.2011 08:40 -2,0 C 10,2 C -0,9 C -2,1 C -2,3 C 0,0 C 92 % 92 % 0 % 1020,8 hPa 0,0 l/m 0,0 km/h (0 Bft) W-SW 247 0 min 0,0 UV-I -3,1 C -2,3 C 0,0 km/h (0 Bft)
22.11.2011 08:45 -1,9 C 10,2 C -0,9 C -1,9 C -2,0 C 0,0 C 93 % 92 % 0 % 1020,8 hPa 0,0 l/m 0,0 km/h (0 Bft) W-SW 247 0 min 0,0 UV-I -2,9 C -2,0 C 0,0 km/h (0 Bft)
22.11.2011 08:50 -1,9 C 10,2 C -0,9 C -1,8 C -1,8 C 0,1 C 93 % 92 % 3 % 1020,8 hPa 0,0 l/m 0,0 km/h (0 Bft) W-SW 247 0 min 0,0 UV-I -2,9 C -1,8 C 0,0 km/h (0 Bft)
22.11.2011 08:55 -1,7 C 10,2 C -0,9 C -1,6 C -1,6 C 0,1 C 93 % 92 % 3 % 1020,8 hPa 0,0 l/m 0,0 km/h (0 Bft) W-SW 247 0 min 0,0 UV-I -2,7 C -1,6 C 0,0 km/h (0 Bft)
22.11.2011 09:00 -1,7 C 10,2 C -0,8 C -1,4 C -1,4 C 0,3 C 93 % 92 % 8 % 1021,0 hPa 0,0 l/m 0,0 km/h (0 Bft) W-SW 247 0 min 0,0 UV-I -2,7 C -1,4 C 0,0 km/h (0 Bft)
22.11.2011 09:12 -1,7 C 10,2 C -0,5 C -1,2 C -1,2 C 0,5 C 93 % 92 % 13 % 1021,0 hPa 0,0 l/m 0,0 km/h (0 Bft) N 0 0 min 0,0 UV-I -2,7 C -1,2 C 0,0 km/h (0 Bft)
22.11.2011 09:20 -1,5 C 10,2 C -0,4 C -0,7 C -0,7 C 0,8 C 93 % 92 % 21 % 1021,2 hPa 0,0 l/m 0,0 km/h (0 Bft) W-SW 247 0 min 0,0 UV-I -2,5 C -0,7 C 0,0 km/h (0 Bft)
22.11.2011 09:25 -1,3 C 10,2 C -0,3 C -0,3 C -0,3 C 1,0 C 93 % 92 % 26 % 1021,2 hPa 0,0 l/m 0,0 km/h (0 Bft) W-SW 247 0 min 0,0 UV-I -2,3 C -0,3 C 0,0 km/h (0 Bft)
22.11.2011 09:30 -1,2 C 10,1 C -0,1 C -0,2 C -0,2 C 1,0 C 93 % 93 % 26 % 1021,2 hPa 0,0 l/m 0,0 km/h (0 Bft) W-SW 247 0 min 0,0 UV-I -2,2 C -0,2 C 0,0 km/h (0 Bft)
22.11.2011 09:35 -0,7 C 10,1 C 0,1 C 0,0 C 0,0 C 0,7 C 93 % 93 % 18 % 1021,2 hPa 0,0 l/m 0,0 km/h (0 Bft) W-SW 247 0 min 0,0 UV-I -1,7 C 0,0 C 0,0 km/h (0 Bft)
22.11.2011 09:40 -0,7 C 10,0 C 0,2 C 0,4 C 0,4 C 1,1 C 93 % 93 % 29 % 1021,6 hPa 0,0 l/m 0,0 km/h (0 Bft) W-SW 247 0 min 0,0 UV-I -1,7 C 0,4 C 0,0 km/h (0 Bft)
22.11.2011 09:45 -0,5 C 10,1 C 0,5 C 0,6 C 0,6 C 1,1 C 93 % 93 % 29 % 1021,6 hPa 0,0 l/m 0,0 km/h (0 Bft) W-SW 247 0 min 0,0 UV-I -1,5 C 0,6 C 0,0 km/h (0 Bft)
22.11.2011 09:50 -0,3 C 10,1 C 0,4 C 0,5 C 0,5 C 0,8 C 93 % 93 % 21 % 1021,6 hPa 0,0 l/m 0,0 km/h (0 Bft) W-SW 247 0 min 0,0 UV-I -1,3 C 0,5 C 0,0 km/h (0 Bft)
22.11.2011 09:55 -0,1 C 10,2 C 0,6 C 1,0 C 1,0 C 1,1 C 93 % 93 % 29 % 1021,6 hPa 0,0 l/m 0,0 km/h (0 Bft) W-SW 247 0 min 0,0 UV-I -1,1 C 1,0 C 0,0 km/h (0 Bft)
22.11.2011 10:00 0,3 C 10,2 C 0,8 C 1,5 C 1,5 C 1,2 C 93 % 93 % 32 % 1021,6 hPa 0,0 l/m 0,0 km/h (0 Bft) W-SW 247 0 min 0,0 UV-I -0,7 C 1,5 C 0,0 km/h (0 Bft)
22.11.2011 10:10 0,9 C 10,2 C 1,3 C 2,5 C 2,5 C 1,6 C 93 % 93 % 42 % 1021,6 hPa 0,0 l/m 0,0 km/h (0 Bft) N 0 0 min 0,0 UV-I -0,1 C 2,5 C 0,0 km/h (0 Bft)
22.11.2011 10:15 1,2 C 10,2 C 1,6 C 3,1 C 3,1 C 1,9 C 94 % 93 % 50 % 1021,6 hPa 0,0 l/m 0,0 km/h (0 Bft) W-SW 247 0 min 0,0 UV-I 0,3 C 3,1 C 0,0 km/h (0 Bft)
22.11.2011 10:20 1,5 C 10,2 C 1,9 C 3,3 C 3,3 C 1,8 C 94 % 93 % 47 % 1021,2 hPa 0,0 l/m 0,0 km/h (0 Bft) SW 225 0 min 0,0 UV-I 0,6 C 3,3 C 0,0 km/h (0 Bft)
22.11.2011 10:25 1,9 C 10,2 C 2,3 C 3,4 C 3,4 C 1,5 C 94 % 94 % 39 % 1021,2 hPa 0,0 l/m 0,2 km/h (0 Bft) SW 225 0 min 0,0 UV-I 1,0 C 3,4 C 3,1 km/h (1 Bft)
22.11.2011 10:30 2,1 C 10,2 C 2,5 C 3,7 C 3,7 C 1,6 C 94 % 94 % 42 % 1021,2 hPa 0,0 l/m 0,8 km/h (0 Bft) W-SW 247 0 min 0,0 UV-I 1,2 C 3,7 C 1,8 km/h (1 Bft)
22.11.2011 10:35 2,5 C 10,2 C 2,8 C 4,2 C 4,2 C 1,7 C 94 % 94 % 45 % 1021,2 hPa 0,0 l/m 1,8 km/h (1 Bft) W 270 0 min 0,0 UV-I 1,6 C 4,2 C 2,1 km/h (1 Bft)
22.11.2011 10:40 2,8 C 10,2 C 3,1 C 5,0 C 5,0 C 2,2 C 94 % 94 % 58 % 1021,4 hPa 0,0 l/m 1,6 km/h (1 Bft) SW 225 0 min 0,0 UV-I 1,9 C 5,0 C 1,8 km/h (1 Bft)
22.11.2011 10:45 3,1 C 10,1 C 3,2 C 5,6 C 5,6 C 2,5 C 94 % 93 % 66 % 1021,4 hPa 0,0 l/m 1,1 km/h (1 Bft) W-SW 247 0 min 0,0 UV-I 2,2 C 5,6 C 2,1 km/h (1 Bft)
22.11.2011 10:50 3,3 C 10,1 C 3,3 C 6,2 C 6,2 C 2,9 C 94 % 93 % 76 % 1021,4 hPa 0,0 l/m 0,6 km/h (0 Bft) W-SW 247 0 min 0,0 UV-I 2,4 C 6,2 C 2,3 km/h (1 Bft)
22.11.2011 10:55 3,6 C 10,1 C 3,6 C 6,7 C 6,7 C 3,1 C 94 % 94 % 82 % 1021,4 hPa 0,0 l/m 0,8 km/h (0 Bft) SW 225 0 min 0,0 UV-I 2,7 C 6,7 C 1,6 km/h (1 Bft)
22.11.2011 11:00 3,8 C 10,1 C 3,9 C 7,1 C 7,1 C 3,3 C 94 % 94 % 87 % 1021,8 hPa 0,0 l/m 0,8 km/h (0 Bft) W-SW 247 5 min 0,0 UV-I 2,9 C 7,1 C 0,0 km/h (0 Bft)
22.11.2011 11:12 4,5 C 10,1 C 4,5 C 8,6 C 8,6 C 4,1 C 94 % 94 % 100 % 1021,8 hPa 0,0 l/m 0,5 km/h (0 Bft) N 0 12 min 0,0 UV-I 3,6 C 8,6 C 2,4 km/h (1 Bft)
22.11.2011 11:20 5,1 C 10,0 C 4,8 C 10,2 C 10,2 C 5,1 C 94 % 93 % 100 % 1021,6 hPa 0,0 l/m 0,3 km/h (0 Bft) W 270 8 min 0,0 UV-I 4,2 C 10,2 C 0,0 km/h (0 Bft)
22.11.2011 11:25 5,2 C 10,0 C 4,8 C 11,0 C 11,0 C 5,8 C 94 % 93 % 100 % 1021,6 hPa 0,0 l/m 0,0 km/h (0 Bft) W-SW 247 5 min 0,0 UV-I 4,3 C 11,0 C 0,0 km/h (0 Bft)
22.11.2011 11:30 5,5 C 9,9 C 4,9 C 11,5 C 11,5 C 6,0 C 94 % 93 % 100 % 1021,6 hPa 0,0 l/m 0,0 km/h (0 Bft) SW 225 5 min 0,0 UV-I 4,6 C 11,5 C 0,0 km/h (0 Bft)
22.11.2011 11:35 5,7 C 9,9 C 5,2 C 11,2 C 11,2 C 5,5 C 94 % 93 % 100 % 1021,6 hPa 0,0 l/m 0,3 km/h (0 Bft) W-SW 247 5 min 0,0 UV-I 4,8 C 11,2 C 2,6 km/h (1 Bft)
22.11.2011 11:40 6,1 C 9,8 C 5,6 C 10,9 C 10,9 C 4,8 C 94 % 93 % 100 % 1021,6 hPa 0,0 l/m 1,3 km/h (1 Bft) W-SW 247 5 min 0,0 UV-I 5,2 C 10,9 C 2,3 km/h (1 Bft)
22.11.2011 11:45 6,4 C 9,9 C 6,0 C 10,5 C 10,5 C 4,1 C 94 % 93 % 100 % 1021,6 hPa 0,0 l/m 1,3 km/h (1 Bft) S-SW 202 5 min 0,0 UV-I 5,5 C 10,5 C 1,9 km/h (1 Bft)
22.11.2011 11:50 6,7 C 9,8 C 6,1 C 10,4 C 10,4 C 3,7 C 94 % 93 % 97 % 1021,6 hPa 0,0 l/m 0,8 km/h (0 Bft) W 270 5 min 0,0 UV-I 5,8 C 10,4 C 0,0 km/h (0 Bft)
22.11.2011 11:55 7,1 C 9,7 C 6,1 C 10,7 C 10,7 C 3,6 C 94 % 93 % 95 % 1021,6 hPa 0,0 l/m 0,2 km/h (0 Bft) W-SW 247 5 min 0,0 UV-I 6,2 C 10,7 C 0,0 km/h (0 Bft)
22.11.2011 12:00 7,3 C 9,7 C 6,3 C 10,9 C 10,9 C 3,6 C 93 % 93 % 95 % 1021,6 hPa 0,0 l/m 0,0 km/h (0 Bft) W-SW 247 5 min 0,0 UV-I 6,2 C 10,9 C 0,0 km/h (0 Bft)
22.11.2011 12:05 7,5 C 9,7 C 6,6 C 11,4 C 11,4 C 3,9 C 93 % 93 % 100 % 1021,6 hPa 0,0 l/m 0,3 km/h (0 Bft) W-SW 247 5 min 0,0 UV-I 6,4 C 11,4 C 0,0 km/h (0 Bft)
22.11.2011 12:10 8,0 C 9,7 C 6,8 C 11,8 C 11,8 C 3,8 C 92 % 92 % 100 % 1021,6 hPa 0,0 l/m 0,6 km/h (0 Bft) W 270 5 min 0,0 UV-I 6,8 C 11,8 C 2,3 km/h (1 Bft)
22.11.2011 12:15 8,5 C 9,7 C 7,0 C 12,3 C 12,3 C 3,8 C 90 % 92 % 100 % 1021,6 hPa 0,0 l/m 1,1 km/h (1 Bft) SW 225 5 min 0,0 UV-I 7,0 C 12,3 C 2,1 km/h (1 Bft)
22.11.2011 12:20 8,9 C 9,7 C 7,4 C 12,1 C 12,1 C 3,2 C 90 % 92 % 84 % 1021,1 hPa 0,0 l/m 1,8 km/h (1 Bft) W 270 0 min 0,0 UV-I 7,4 C 12,1 C 2,1 km/h (1 Bft)
22.11.2011 12:25 9,5 C 9,7 C 7,7 C 12,2 C 12,2 C 2,7 C 87 % 91 % 71 % 1021,1 hPa 0,0 l/m 2,1 km/h (1 Bft) SW 225 0 min 0,0 UV-I 7,4 C 12,2 C 2,4 km/h (1 Bft)
22.11.2011 12:30 9,6 C 9,7 C 8,0 C 12,2 C 12,2 C 2,6 C 88 % 91 % 68 % 1021,1 hPa 0,0 l/m 1,8 km/h (1 Bft) W 270 0 min 0,0 UV-I 7,7 C 12,2 C 0,0 km/h (0 Bft)
22.11.2011 12:35 9,8 C 9,7 C 8,1 C 12,4 C 12,4 C 2,6 C 85 % 90 % 68 % 1021,1 hPa 0,0 l/m 0,8 km/h (0 Bft) W-SW 247 0 min 0,0 UV-I 7,4 C 12,4 C 2,3 km/h (1 Bft)
22.11.2011 12:40 10,0 C 9,7 C 8,3 C 12,4 C 12,4 C 2,4 C 85 % 90 % 63 % 1021,1 hPa 0,0 l/m 0,6 km/h (0 Bft) SW 225 0 min 0,0 UV-I 7,6 C 12,4 C 1,9 km/h (1 Bft)
22.11.2011 12:45 10,3 C 9,6 C 8,3 C 12,8 C 12,8 C 2,5 C 83 % 89 % 66 % 1021,1 hPa 0,0 l/m 0,5 km/h (0 Bft) SW 225 0 min 0,0 UV-I 7,5 C 12,8 C 0,0 km/h (0 Bft)
22.11.2011 12:50 10,3 C 9,7 C 8,4 C 13,0 C 13,0 C 2,7 C 82 % 89 % 71 % 1021,1 hPa 0,0 l/m 0,5 km/h (0 Bft) W-SW 247 0 min 0,0 UV-I 7,4 C 13,0 C 2,3 km/h (1 Bft)
22.11.2011 12:55 10,6 C 9,7 C 8,8 C 13,3 C 13,3 C 2,7 C 81 % 89 % 71 % 1021,1 hPa 0,0 l/m 1,1 km/h (1 Bft) SW 225 0 min 0,0 UV-I 7,5 C 13,3 C 0,0 km/h (0 Bft)
22.11.2011 13:00 10,8 C 9,7 C 8,8 C 13,3 C 13,3 C 2,5 C 80 % 88 % 66 % 1020,9 hPa 0,0 l/m 1,8 km/h (1 Bft) W-SW 247 0 min 0,0 UV-I 7,5 C 13,3 C 0,0 km/h (0 Bft)
22.11.2011 13:12 11,1 C 9,7 C 9,0 C 13,8 C 13,8 C 2,7 C 78 % 87 % 71 % 1020,9 hPa 0,0 l/m 1,0 km/h (0 Bft) N 0 0 min 0,0 UV-I 7,4 C 13,8 C 2,4 km/h (1 Bft)
22.11.2011 13:20 11,5 C 9,7 C 9,5 C 14,6 C 14,6 C 3,1 C 74 % 85 % 82 % 1021,0 hPa 0,0 l/m 1,9 km/h (1 Bft) W-SW 247 0 min 0,0 UV-I 7,0 C 14,6 C 5,0 km/h (1 Bft)
22.11.2011 13:25 11,7 C 9,7 C 9,7 C 15,5 C 15,5 C 3,8 C 74 % 84 % 100 % 1021,0 hPa 0,0 l/m 1,9 km/h (1 Bft) W-SW 247 5 min 0,0 UV-I 7,2 C 15,5 C 0,0 km/h (0 Bft)
22.11.2011 13:30 11,9 C 9,7 C 9,9 C 15,9 C 15,9 C 4,0 C 74 % 83 % 100 % 1021,0 hPa 0,0 l/m 2,1 km/h (1 Bft) S 180 5 min 0,0 UV-I 7,4 C 15,9 C 6,4 km/h (2 Bft)
22.11.2011 13:35 12,0 C 9,8 C 9,9 C 15,9 C 15,9 C 3,9 C 72 % 82 % 100 % 1021,0 hPa 0,0 l/m 1,1 km/h (1 Bft) W-SW 247 5 min 0,0 UV-I 7,1 C 15,9 C 2,7 km/h (1 Bft)
22.11.2011 13:40 12,1 C 9,8 C 9,8 C 15,9 C 15,9 C 3,8 C 72 % 82 % 100 % 1021,6 hPa 0,0 l/m 0,6 km/h (0 Bft) SW 225 5 min 0,0 UV-I 7,2 C 15,9 C 0,0 km/h (0 Bft)
22.11.2011 13:45 12,3 C 9,8 C 10,1 C 16,1 C 16,1 C 3,8 C 72 % 82 % 100 % 1021,6 hPa 0,0 l/m 1,1 km/h (1 Bft) W-SW 247 5 min 0,0 UV-I 7,4 C 16,1 C 2,6 km/h (1 Bft)
22.11.2011 13:50 12,3 C 9,8 C 10,2 C 16,2 C 16,2 C 3,9 C 71 % 82 % 100 % 1021,6 hPa 0,0 l/m 1,4 km/h (1 Bft) W-SW 247 5 min 0,0 UV-I 7,2 C 16,2 C 2,4 km/h (1 Bft)
22.11.2011 13:55 12,4 C 9,8 C 10,5 C 16,1 C 16,1 C 3,7 C 70 % 81 % 97 % 1021,6 hPa 0,0 l/m 1,6 km/h (1 Bft) W-SW 247 5 min 0,0 UV-I 7,1 C 16,1 C 4,0 km/h (1 Bft)
22.11.2011 14:00 12,6 C 9,8 C 10,7 C 16,3 C 16,3 C 3,7 C 68 % 80 % 97 % 1020,8 hPa 0,0 l/m 1,9 km/h (1 Bft) S 180 5 min 0,0 UV-I 6,9 C 16,3 C 4,5 km/h (1 Bft)
22.11.2011 14:12 12,8 C 9,9 C 11,7 C 16,2 C 16,2 C 3,4 C 66 % 77 % 89 % 1020,8 hPa 0,0 l/m 2,3 km/h (1 Bft) N 0 12 min 0,0 UV-I 6,6 C 16,2 C 8,2 km/h (2 Bft)
22.11.2011 14:20 13,1 C 9,9 C 12,7 C 16,6 C 16,6 C 3,5 C 67 % 73 % 92 % 1020,8 hPa 0,0 l/m 1,1 km/h (1 Bft) W-SW 247 8 min 0,0 UV-I 7,1 C 16,6 C 3,2 km/h (1 Bft)
22.11.2011 14:25 13,3 C 9,9 C 11,8 C 16,7 C 16,7 C 3,4 C 67 % 74 % 89 % 1020,8 hPa 0,0 l/m 1,8 km/h (1 Bft) S-SO 157 5 min 0,0 UV-I 7,3 C 16,7 C 0,0 km/h (0 Bft)
22.11.2011 14:30 13,4 C 9,9 C 11,6 C 16,6 C 16,6 C 3,2 C 67 % 74 % 84 % 1020,8 hPa 0,0 l/m 1,4 km/h (1 Bft) S 180 0 min 0,0 UV-I 7,4 C 16,6 C 0,0 km/h (0 Bft)
22.11.2011 14:35 13,5 C 9,9 C 11,2 C 16,1 C 16,1 C 2,6 C 65 % 75 % 68 % 1020,8 hPa 0,0 l/m 1,1 km/h (1 Bft) W 270 0 min 0,0 UV-I 7,1 C 16,1 C 0,0 km/h (0 Bft)
22.11.2011 14:40 13,3 C 10,0 C 11,1 C 15,6 C 15,6 C 2,3 C 64 % 75 % 61 % 1020,8 hPa 0,0 l/m 1,9 km/h (1 Bft) S 180 0 min 0,0 UV-I 6,6 C 15,6 C 3,9 km/h (1 Bft)
22.11.2011 14:45 13,0 C 10,0 C 11,0 C 15,0 C 15,0 C 2,0 C 65 % 75 % 53 % 1020,8 hPa 0,0 l/m 1,4 km/h (1 Bft) W 270 0 min 0,0 UV-I 6,6 C 15,0 C 1,8 km/h (1 Bft)
22.11.2011 14:50 12,9 C 10,0 C 10,8 C 14,9 C 14,9 C 2,0 C 66 % 75 % 53 % 1020,8 hPa 0,0 l/m 0,6 km/h (0 Bft) S-SW 202 0 min 0,0 UV-I 6,7 C 14,9 C 0,0 km/h (0 Bft)
22.11.2011 14:55 12,7 C 10,0 C 10,6 C 15,0 C 15,0 C 2,3 C 66 % 76 % 61 % 1020,8 hPa 0,0 l/m 0,8 km/h (0 Bft) SW 225 0 min 0,0 UV-I 6,5 C 15,0 C 2,1 km/h (1 Bft)
22.11.2011 15:00 12,5 C 10,0 C 10,7 C 15,0 C 15,0 C 2,5 C 67 % 76 % 66 % 1020,9 hPa 0,0 l/m 0,6 km/h (0 Bft) SW 225 0 min 0,0 UV-I 6,5 C 15,0 C 0,0 km/h (0 Bft)
22.11.2011 15:12 12,1 C 10,0 C 10,5 C 13,6 C 13,6 C 1,5 C 68 % 76 % 39 % 1020,9 hPa 0,0 l/m 0,2 km/h (0 Bft) N 0 0 min 0,0 UV-I 6,4 C 13,6 C 0,0 km/h (0 Bft)
22.11.2011 15:20 11,7 C 10,0 C 10,1 C 12,0 C 12,0 C 0,3 C 69 % 77 % 8 % 1021,0 hPa 0,0 l/m 0,0 km/h (0 Bft) W 270 0 min 0,0 UV-I 6,2 C 12,0 C 0,0 km/h (0 Bft)
22.11.2011 15:25 11,5 C 10,2 C 9,8 C 11,5 C 11,4 C 0,0 C 70 % 77 % 0 % 1021,0 hPa 0,0 l/m 0,0 km/h (0 Bft) W 270 0 min 0,0 UV-I 6,2 C 11,4 C 0,0 km/h (0 Bft)
22.11.2011 15:30 11,3 C 10,2 C 9,5 C 11,2 C 11,0 C 0,0 C 70 % 78 % 0 % 1021,0 hPa 0,0 l/m 0,0 km/h (0 Bft) W 270 0 min 0,0 UV-I 6,0 C 11,0 C 0,0 km/h (0 Bft)
22.11.2011 15:35 11,1 C 10,2 C 9,1 C 10,9 C 10,4 C 0,0 C 71 % 78 % 0 % 1021,0 hPa 0,0 l/m 0,0 km/h (0 Bft) W 270 0 min 0,0 UV-I 6,0 C 10,4 C 0,0 km/h (0 Bft)
22.11.2011 15:40 10,8 C 10,2 C 9,1 C 10,6 C 10,1 C 0,0 C 71 % 79 % 0 % 1021,4 hPa 0,0 l/m 0,0 km/h (0 Bft) W 270 0 min 0,0 UV-I 5,8 C 10,1 C 0,0 km/h (0 Bft)
22.11.2011 15:45 10,4 C 10,2 C 8,9 C 10,2 C 9,7 C 0,0 C 72 % 79 % 0 % 1021,4 hPa 0,0 l/m 0,0 km/h (0 Bft) W 270 0 min 0,0 UV-I 5,6 C 9,7 C 0,0 km/h (0 Bft)
22.11.2011 15:50 10,3 C 10,2 C 8,7 C 10,1 C 9,7 C 0,0 C 72 % 79 % 0 % 1021,4 hPa 0,0 l/m 0,0 km/h (0 Bft) W 270 0 min 0,0 UV-I 5,5 C 9,7 C 0,0 km/h (0 Bft)
22.11.2011 15:55 10,0 C 10,2 C 8,5 C 9,8 C 9,4 C 0,0 C 73 % 80 % 0 % 1021,4 hPa 0,0 l/m 0,0 km/h (0 Bft) W 270 0 min 0,0 UV-I 5,4 C 9,4 C 0,0 km/h (0 Bft)
22.11.2011 16:00 9,9 C 10,2 C 8,3 C 9,8 C 9,5 C 0,0 C 73 % 80 % 0 % 1021,1 hPa 0,0 l/m 0,0 km/h (0 Bft) W 270 0 min 0,0 UV-I 5,3 C 9,5 C 0,0 km/h (0 Bft)
22.11.2011 16:04 9,6 C 10,3 C 7,9 C 9,5 C 9,2 C 0,0 C 74 % 81 % 0 % 1021,1 hPa 0,0 l/m 0,0 km/h (0 Bft) W 270 0 min 0,0 UV-I 5,2 C 9,2 C 0,0 km/h (0 Bft)
22.11.2011 16:09 9,4 C 10,3 C 7,6 C 9,2 C 8,8 C 0,0 C 74 % 81 % 0 % 1021,1 hPa 0,0 l/m 0,0 km/h (0 Bft) W 270 0 min 0,0 UV-I 5,0 C 8,8 C 0,0 km/h (0 Bft)
22.11.2011 16:14 9,1 C 10,3 C 7,4 C 8,8 C 8,1 C 0,0 C 75 % 81 % 0 % 1021,1 hPa 0,0 l/m 0,0 km/h (0 Bft) W 270 0 min 0,0 UV-I 4,9 C 8,1 C 0,0 km/h (0 Bft)
22.11.2011 16:18 9,1 C 10,3 C 7,4 C 8,8 C 8,1 C 0,0 C 75 % 81 % 0 % 1021,1 hPa 0,0 l/m 0,0 km/h (0 Bft) W 270 0 min 0,0 UV-I 4,9 C 8,1 C 0,0 km/h (0 Bft)
22.11.2011 16:25 8,5 C 10,4 C 6,8 C 8,0 C 7,0 C 0,0 C 76 % 83 % 0 % 1022,0 hPa 0,0 l/m 0,0 km/h (0 Bft) W 270 0 min 0,0 UV-I 4,5 C 7,0 C 0,0 km/h (0 Bft)
22.11.2011 16:30 8,3 C 10,5 C 6,7 C 7,7 C 6,6 C 0,0 C 77 % 83 % 0 % 1022,0 hPa 0,0 l/m 0,0 km/h (0 Bft) W 270 0 min 0,0 UV-I 4,5 C 6,6 C 0,0 km/h (0 Bft)
22.11.2011 16:35 7,8 C 10,5 C 6,4 C 7,3 C 6,2 C 0,0 C 78 % 84 % 0 % 1022,0 hPa 0,0 l/m 0,0 km/h (0 Bft) W 270 0 min 0,0 UV-I 4,2 C 6,2 C 0,0 km/h (0 Bft)
22.11.2011 16:40 7,6 C 10,6 C 6,3 C 7,1 C 6,1 C 0,0 C 79 % 84 % 0 % 1022,0 hPa 0,0 l/m 0,0 km/h (0 Bft) W 270 0 min 0,0 UV-I 4,2 C 6,1 C 0,0 km/h (0 Bft)
22.11.2011 16:45 7,2 C 10,6 C 6,0 C 6,7 C 5,8 C 0,0 C 79 % 84 % 0 % 1022,0 hPa 0,0 l/m 0,0 km/h (0 Bft) W 270 0 min 0,0 UV-I 3,8 C 5,8 C 0,0 km/h (0 Bft)
22.11.2011 16:50 6,9 C 10,6 C 5,9 C 6,5 C 5,7 C 0,0 C 79 % 84 % 0 % 1022,0 hPa 0,0 l/m 0,0 km/h (0 Bft) W 270 0 min 0,0 UV-I 3,5 C 5,7 C 0,0 km/h (0 Bft)
22.11.2011 16:55 6,7 C 10,7 C 5,6 C 6,3 C 5,4 C 0,0 C 80 % 85 % 0 % 1022,0 hPa 0,0 l/m 0,0 km/h (0 Bft) W 270 0 min 0,0 UV-I 3,5 C 5,4 C 0,0 km/h (0 Bft)
22.11.2011 17:00 6,5 C 10,7 C 5,5 C 6,1 C 5,2 C 0,0 C 81 % 85 % 0 % 1022,0 hPa 0,0 l/m 0,0 km/h (0 Bft) W-SW 247 0 min 0,0 UV-I 3,5 C 5,2 C 0,0 km/h (0 Bft)
22.11.2011 17:11 6,0 C 10,8 C 5,1 C 5,5 C 4,5 C 0,0 C 82 % 86 % 0 % 1022,0 hPa 0,0 l/m 0,0 km/h (0 Bft) N 0 0 min 0,0 UV-I 3,2 C 4,5 C 0,0 km/h (0 Bft)
22.11.2011 17:20 5,5 C 10,8 C 4,6 C 5,0 C 4,1 C 0,0 C 82 % 86 % 0 % 1022,1 hPa 0,0 l/m 0,0 km/h (0 Bft) W-SW 247 0 min 0,0 UV-I 2,7 C 4,1 C 0,0 km/h (0 Bft)
22.11.2011 17:25 5,3 C 10,8 C 4,4 C 4,8 C 3,7 C 0,0 C 83 % 86 % 0 % 1022,1 hPa 0,0 l/m 0,0 km/h (0 Bft) W-SW 247 0 min 0,0 UV-I 2,7 C 3,7 C 0,0 km/h (0 Bft)
22.11.2011 17:30 5,1 C 10,9 C 4,4 C 4,6 C 3,6 C 0,0 C 83 % 87 % 0 % 1022,1 hPa 0,0 l/m 0,0 km/h (0 Bft) W-SW 247 0 min 0,0 UV-I 2,5 C 3,6 C 0,0 km/h (0 Bft)
22.11.2011 17:35 4,9 C 10,9 C 4,2 C 4,5 C 3,6 C 0,0 C 83 % 87 % 0 % 1022,1 hPa 0,0 l/m 0,0 km/h (0 Bft) W-SW 247 0 min 0,0 UV-I 2,3 C 3,6 C 0,0 km/h (0 Bft)
22.11.2011 17:40 4,8 C 10,9 C 4,2 C 4,4 C 3,5 C 0,0 C 84 % 87 % 0 % 1022,1 hPa 0,0 l/m 0,0 km/h (0 Bft) W-SW 247 0 min 0,0 UV-I 2,3 C 3,5 C 0,0 km/h (0 Bft)
22.11.2011 17:45 4,7 C 10,9 C 4,0 C 4,2 C 3,2 C 0,0 C 85 % 87 % 0 % 1022,1 hPa 0,0 l/m 0,0 km/h (0 Bft) W-SW 247 0 min 0,0 UV-I 2,4 C 3,2 C 0,0 km/h (0 Bft)
22.11.2011 17:50 4,4 C 10,9 C 3,9 C 3,9 C 3,0 C 0,0 C 84 % 87 % 0 % 1022,1 hPa 0,0 l/m 0,0 km/h (0 Bft) W-SW 247 0 min 0,0 UV-I 1,9 C 3,0 C 0,0 km/h (0 Bft)
22.11.2011 17:55 4,3 C 10,9 C 3,7 C 3,9 C 3,0 C 0,0 C 85 % 87 % 0 % 1022,1 hPa 0,0 l/m 0,0 km/h (0 Bft) W-SW 247 0 min 0,0 UV-I 2,0 C 3,0 C 0,0 km/h (0 Bft)
22.11.2011 18:00 4,1 C 10,9 C 3,7 C 3,7 C 2,8 C 0,0 C 85 % 88 % 0 % 1022,2 hPa 0,0 l/m 0,0 km/h (0 Bft) W-SW 247 0 min 0,0 UV-I 1,8 C 2,8 C 0,0 km/h (0 Bft)
22.11.2011 18:12 3,9 C 11,0 C 3,5 C 3,4 C 2,4 C 0,0 C 85 % 88 % 0 % 1022,2 hPa 0,0 l/m 0,0 km/h (0 Bft) N 0 0 min 0,0 UV-I 1,6 C 2,4 C 0,0 km/h (0 Bft)
22.11.2011 18:20 3,6 C 11,0 C 3,3 C 3,1 C 2,1 C 0,0 C 86 % 88 % 0 % 1022,5 hPa 0,0 l/m 0,0 km/h (0 Bft) SW 225 0 min 0,0 UV-I 1,5 C 2,1 C 0,0 km/h (0 Bft)
22.11.2011 18:25 3,4 C 11,0 C 3,2 C 3,0 C 2,3 C 0,0 C 86 % 89 % 0 % 1022,5 hPa 0,0 l/m 0,0 km/h (0 Bft) SW 225 0 min 0,0 UV-I 1,3 C 2,3 C 0,0 km/h (0 Bft)
22.11.2011 18:30 3,3 C 11,0 C 3,2 C 3,0 C 2,3 C 0,0 C 87 % 89 % 0 % 1022,5 hPa 0,0 l/m 0,0 km/h (0 Bft) SW 225 0 min 0,0 UV-I 1,3 C 2,3 C 0,0 km/h (0 Bft)
22.11.2011 18:35 3,2 C 11,0 C 2,9 C 2,9 C 2,3 C 0,0 C 87 % 89 % 0 % 1022,5 hPa 0,0 l/m 0,0 km/h (0 Bft) SW 225 0 min 0,0 UV-I 1,2 C 2,3 C 0,0 km/h (0 Bft)
22.11.2011 18:40 3,1 C 11,0 C 2,8 C 2,9 C 2,4 C 0,0 C 87 % 89 % 0 % 1022,4 hPa 0,0 l/m 0,0 km/h (0 Bft) SW 225 0 min 0,0 UV-I 1,2 C 2,4 C 0,0 km/h (0 Bft)
22.11.2011 18:45 2,9 C 11,0 C 2,8 C 2,7 C 2,2 C 0,0 C 87 % 89 % 0 % 1022,4 hPa 0,0 l/m 0,0 km/h (0 Bft) SW 225 0 min 0,0 UV-I 1,0 C 2,2 C 0,0 km/h (0 Bft)
22.11.2011 18:50 2,8 C 11,0 C 2,7 C 2,5 C 2,0 C 0,0 C 87 % 89 % 0 % 1022,4 hPa 0,0 l/m 0,0 km/h (0 Bft) W-SW 247 0 min 0,0 UV-I 0,9 C 2,0 C 0,0 km/h (0 Bft)
22.11.2011 18:55 2,7 C 11,0 C 2,7 C 2,4 C 1,7 C 0,0 C 87 % 89 % 0 % 1022,4 hPa 0,0 l/m 0,0 km/h (0 Bft) W-SW 247 0 min 0,0 UV-I 0,8 C 1,7 C 0,0 km/h (0 Bft)
22.11.2011 19:00 2,6 C 11,0 C 2,6 C 2,2 C 1,5 C 0,0 C 87 % 89 % 0 % 1022,6 hPa 0,0 l/m 0,0 km/h (0 Bft) W-SW 247 0 min 0,0 UV-I 0,7 C 1,5 C 0,0 km/h (0 Bft)
22.11.2011 19:12 2,4 C 11,0 C 2,4 C 2,1 C 1,4 C 0,0 C 88 % 89 % 0 % 1022,6 hPa 0,0 l/m 0,0 km/h (0 Bft) N 0 0 min 0,0 UV-I 0,6 C 1,4 C 0,0 km/h (0 Bft)
22.11.2011 19:20 2,3 C 11,0 C 2,4 C 2,0 C 1,3 C 0,0 C 88 % 90 % 0 % 1022,9 hPa 0,0 l/m 0,0 km/h (0 Bft) W-SW 247 0 min 0,0 UV-I 0,5 C 1,3 C 0,0 km/h (0 Bft)
22.11.2011 19:25 2,1 C 11,0 C 2,3 C 1,8 C 1,2 C 0,0 C 88 % 90 % 0 % 1022,9 hPa 0,0 l/m 0,0 km/h (0 Bft) SW 225 0 min 0,0 UV-I 0,3 C 1,2 C 0,0 km/h (0 Bft)
22.11.2011 19:30 2,0 C 11,0 C 2,1 C 1,8 C 1,3 C 0,0 C 88 % 89 % 0 % 1022,9 hPa 0,0 l/m 0,0 km/h (0 Bft) W-SW 247 0 min 0,0 UV-I 0,2 C 1,3 C 0,0 km/h (0 Bft)
22.11.2011 19:35 1,9 C 11,0 C 2,3 C 1,7 C 1,3 C 0,0 C 88 % 90 % 0 % 1022,9 hPa 0,0 l/m 0,0 km/h (0 Bft) W 270 0 min 0,0 UV-I 0,1 C 1,3 C 0,0 km/h (0 Bft)
22.11.2011 19:40 1,9 C 11,0 C 2,3 C 1,7 C 1,2 C 0,0 C 88 % 90 % 0 % 1022,9 hPa 0,0 l/m 0,0 km/h (0 Bft) W 270 0 min 0,0 UV-I 0,1 C 1,2 C 0,0 km/h (0 Bft)
22.11.2011 19:45 1,8 C 10,9 C 2,0 C 1,6 C 1,1 C 0,0 C 88 % 90 % 0 % 1022,9 hPa 0,0 l/m 0,0 km/h (0 Bft) W 270 0 min 0,0 UV-I 0,0 C 1,1 C 0,0 km/h (0 Bft)
22.11.2011 19:50 1,9 C 10,9 C 2,0 C 1,6 C 1,1 C 0,0 C 89 % 90 % 0 % 1022,9 hPa 0,0 l/m 0,0 km/h (0 Bft) W 270 0 min 0,0 UV-I 0,3 C 1,1 C 0,0 km/h (0 Bft)
22.11.2011 19:55 1,9 C 10,9 C 1,9 C 1,7 C 1,2 C 0,0 C 89 % 90 % 0 % 1022,9 hPa 0,0 l/m 0,0 km/h (0 Bft) W 270 0 min 0,0 UV-I 0,3 C 1,2 C 0,0 km/h (0 Bft)
22.11.2011 20:00 1,7 C 10,9 C 1,9 C 1,6 C 1,3 C 0,0 C 89 % 90 % 0 % 1022,9 hPa 0,0 l/m 0,0 km/h (0 Bft) W 270 0 min 0,0 UV-I 0,1 C 1,3 C 0,0 km/h (0 Bft)
22.11.2011 20:11 1,6 C 10,9 C 1,7 C 1,5 C 1,3 C 0,0 C 89 % 90 % 0 % 1022,9 hPa 0,0 l/m 0,0 km/h (0 Bft) N 0 0 min 0,0 UV-I -0,0 C 1,3 C 0,0 km/h (0 Bft)
22.11.2011 20:20 1,5 C 10,9 C 1,7 C 1,2 C 0,7 C 0,0 C 89 % 90 % 0 % 1023,6 hPa 0,0 l/m 0,0 km/h (0 Bft) W 270 0 min 0,0 UV-I -0,1 C 0,7 C 0,0 km/h (0 Bft)
22.11.2011 20:25 1,2 C 10,9 C 1,6 C 0,9 C 0,3 C 0,0 C 89 % 90 % 0 % 1023,6 hPa 0,0 l/m 0,0 km/h (0 Bft) W 270 0 min 0,0 UV-I -0,4 C 0,3 C 0,0 km/h (0 Bft)
22.11.2011 20:30 1,3 C 10,9 C 1,5 C 0,9 C 0,2 C 0,0 C 89 % 90 % 0 % 1023,6 hPa 0,0 l/m 0,0 km/h (0 Bft) W 270 0 min 0,0 UV-I -0,3 C 0,2 C 0,0 km/h (0 Bft)
22.11.2011 20:35 1,1 C 10,9 C 1,5 C 0,8 C 0,2 C 0,0 C 89 % 90 % 0 % 1023,6 hPa 0,0 l/m 0,0 km/h (0 Bft) W 270 0 min 0,0 UV-I -0,5 C 0,2 C 0,0 km/h (0 Bft)
22.11.2011 20:40 1,1 C 10,9 C 1,5 C 0,8 C 0,3 C 0,0 C 90 % 90 % 0 % 1023,7 hPa 0,0 l/m 0,0 km/h (0 Bft) W 270 0 min 0,0 UV-I -0,4 C 0,3 C 0,0 km/h (0 Bft)
22.11.2011 20:45 1,1 C 10,9 C 1,5 C 0,8 C 0,3 C 0,0 C 90 % 90 % 0 % 1023,7 hPa 0,0 l/m 0,0 km/h (0 Bft) W 270 0 min 0,0 UV-I -0,4 C 0,3 C 0,0 km/h (0 Bft)
22.11.2011 20:50 1,0 C 10,9 C 1,5 C 0,7 C 0,2 C 0,0 C 90 % 90 % 0 % 1023,7 hPa 0,0 l/m 0,0 km/h (0 Bft) W 270 0 min 0,0 UV-I -0,5 C 0,2 C 0,0 km/h (0 Bft)
22.11.2011 20:55 1,1 C 10,9 C 1,2 C 0,8 C 0,2 C 0,0 C 90 % 90 % 0 % 1023,7 hPa 0,0 l/m 0,0 km/h (0 Bft) W 270 0 min 0,0 UV-I -0,4 C 0,2 C 0,0 km/h (0 Bft)
22.11.2011 21:00 0,9 C 10,8 C 1,2 C 0,7 C 0,2 C 0,0 C 90 % 90 % 0 % 1024,1 hPa 0,0 l/m 0,0 km/h (0 Bft) W 270 0 min 0,0 UV-I -0,6 C 0,2 C 0,0 km/h (0 Bft)
22.11.2011 21:12 0,7 C 10,8 C 1,2 C 0,5 C 0,0 C 0,0 C 89 % 90 % 0 % 1024,1 hPa 0,0 l/m 0,0 km/h (0 Bft) N 0 0 min 0,0 UV-I -0,9 C 0,0 C 0,0 km/h (0 Bft)
22.11.2011 21:20 0,5 C 10,8 C 1,1 C 0,2 C -0,4 C 0,0 C 89 % 90 % 0 % 1023,9 hPa 0,0 l/m 0,0 km/h (0 Bft) W 270 0 min 0,0 UV-I -1,1 C -0,4 C 0,0 km/h (0 Bft)
22.11.2011 21:25 0,5 C 10,8 C 1,1 C 0,1 C -0,6 C 0,0 C 89 % 91 % 0 % 1023,9 hPa 0,0 l/m 0,0 km/h (0 Bft) W 270 0 min 0,0 UV-I -1,1 C -0,6 C 0,0 km/h (0 Bft)
22.11.2011 21:30 0,4 C 10,8 C 0,9 C 0,0 C -0,8 C 0,0 C 90 % 90 % 0 % 1023,9 hPa 0,0 l/m 0,0 km/h (0 Bft) W-SW 247 0 min 0,0 UV-I -1,0 C -0,8 C 0,0 km/h (0 Bft)
22.11.2011 21:35 0,4 C 10,8 C 0,8 C 0,0 C -0,8 C 0,0 C 90 % 90 % 0 % 1023,9 hPa 0,0 l/m 0,0 km/h (0 Bft) W-SW 247 0 min 0,0 UV-I -1,0 C -0,8 C 0,0 km/h (0 Bft)
22.11.2011 21:40 0,2 C 10,8 C 0,8 C -0,2 C -0,9 C 0,0 C 90 % 90 % 0 % 1024,1 hPa 0,0 l/m 0,0 km/h (0 Bft) W-SW 247 0 min 0,0 UV-I -1,2 C -0,9 C 0,0 km/h (0 Bft)
22.11.2011 21:45 0,1 C 10,8 C 0,8 C -0,2 C -0,9 C 0,0 C 90 % 90 % 0 % 1024,1 hPa 0,0 l/m 0,0 km/h (0 Bft) SW 225 0 min 0,0 UV-I -1,3 C -0,9 C 0,0 km/h (0 Bft)
22.11.2011 21:50 0,0 C 10,8 C 0,7 C -0,3 C -0,9 C 0,0 C 90 % 90 % 0 % 1024,1 hPa 0,0 l/m 0,0 km/h (0 Bft) S-SW 202 0 min 0,0 UV-I -1,4 C -0,9 C 0,0 km/h (0 Bft)
22.11.2011 21:55 0,0 C 10,8 C 0,6 C -0,3 C -0,8 C 0,0 C 90 % 90 % 0 % 1024,1 hPa 0,0 l/m 0,0 km/h (0 Bft) W-SW 247 0 min 0,0 UV-I -1,4 C -0,8 C 0,0 km/h (0 Bft)
22.11.2011 22:00 0,0 C 10,9 C 0,7 C -0,2 C -0,7 C 0,0 C 90 % 91 % 0 % 1024,2 hPa 0,0 l/m 0,0 km/h (0 Bft) SW 225 0 min 0,0 UV-I -1,4 C -0,7 C 0,0 km/h (0 Bft)
22.11.2011 22:04 0,2 C 10,9 C 0,6 C -0,1 C -0,6 C 0,0 C 90 % 91 % 0 % 1024,2 hPa 0,0 l/m 0,0 km/h (0 Bft) W-SW 247 0 min 0,0 UV-I -1,2 C -0,6 C 0,0 km/h (0 Bft)
22.11.2011 22:09 0,3 C 10,8 C 0,6 C 0,0 C -0,6 C 0,0 C 90 % 91 % 0 % 1024,2 hPa 0,0 l/m 0,0 km/h (0 Bft) SW 225 0 min 0,0 UV-I -1,1 C -0,6 C 0,0 km/h (0 Bft)
22.11.2011 22:14 0,2 C 10,8 C 0,5 C 0,0 C -0,5 C 0,0 C 91 % 91 % 0 % 1024,2 hPa 0,0 l/m 0,0 km/h (0 Bft) SW 225 0 min 0,0 UV-I -1,1 C -0,5 C 0,0 km/h (0 Bft)
22.11.2011 22:18 0,2 C 10,8 C 0,5 C 0,0 C -0,5 C 0,0 C 91 % 91 % 0 % 1024,2 hPa 0,0 l/m 0,0 km/h (0 Bft) SW 225 0 min 0,0 UV-I -1,1 C -0,5 C 0,0 km/h (0 Bft)
22.11.2011 22:25 0,0 C 10,8 C 0,4 C -0,3 C -0,8 C 0,0 C 90 % 91 % 0 % 1024,1 hPa 0,0 l/m 0,0 km/h (0 Bft) W-SW 247 0 min 0,0 UV-I -1,4 C -0,8 C 0,0 km/h (0 Bft)
22.11.2011 22:30 -0,1 C 10,8 C 0,3 C -0,4 C -0,9 C 0,0 C 90 % 91 % 0 % 1024,1 hPa 0,0 l/m 0,0 km/h (0 Bft) W-SW 247 0 min 0,0 UV-I -1,5 C -0,9 C 0,0 km/h (0 Bft)
22.11.2011 22:35 -0,1 C 10,8 C 0,3 C -0,4 C -0,9 C 0,0 C 90 % 91 % 0 % 1024,1 hPa 0,0 l/m 0,0 km/h (0 Bft) S 180 0 min 0,0 UV-I -1,5 C -0,9 C 0,0 km/h (0 Bft)
22.11.2011 22:40 -0,1 C 10,8 C 0,3 C -0,3 C -0,8 C 0,0 C 91 % 91 % 0 % 1024,2 hPa 0,0 l/m 0,0 km/h (0 Bft) S-SW 202 0 min 0,0 UV-I -1,4 C -0,8 C 0,0 km/h (0 Bft)
22.11.2011 22:45 -0,1 C 10,8 C 0,3 C -0,4 C -0,9 C 0,0 C 91 % 91 % 0 % 1024,2 hPa 0,0 l/m 0,0 km/h (0 Bft) W-SW 247 0 min 0,0 UV-I -1,4 C -0,9 C 0,0 km/h (0 Bft)
22.11.2011 22:50 -0,3 C 10,8 C 0,3 C -0,5 C -0,9 C 0,0 C 91 % 91 % 0 % 1024,2 hPa 0,0 l/m 0,0 km/h (0 Bft) W-SW 247 0 min 0,0 UV-I -1,6 C -0,9 C 0,0 km/h (0 Bft)
22.11.2011 22:55 -0,4 C 10,8 C 0,2 C -0,7 C -1,2 C 0,0 C 91 % 91 % 0 % 1024,2 hPa 0,0 l/m 0,0 km/h (0 Bft) W-SW 247 0 min 0,0 UV-I -1,7 C -1,2 C 0,0 km/h (0 Bft)
22.11.2011 23:00 -0,5 C 10,8 C 0,2 C -0,8 C -1,3 C 0,0 C 90 % 91 % 0 % 1024,7 hPa 0,0 l/m 0,0 km/h (0 Bft) W-SW 247 0 min 0,0 UV-I -1,9 C -1,3 C 0,0 km/h (0 Bft)
22.11.2011 23:14 -0,5 C 10,7 C 0,1 C -0,8 C -1,5 C 0,0 C 90 % 91 % 0 % 1024,7 hPa 0,0 l/m 0,0 km/h (0 Bft) W-SW 247 0 min 0,0 UV-I -1,9 C -1,5 C 0,0 km/h (0 Bft)
22.11.2011 23:16 -0,5 C 10,7 C 0,1 C -0,8 C -1,5 C 0,0 C 90 % 91 % 0 % 1024,7 hPa 0,0 l/m 0,0 km/h (0 Bft) W-SW 247 0 min 0,0 UV-I -1,9 C -1,5 C 0,0 km/h (0 Bft)
22.11.2011 23:20 -0,5 C 10,7 C 0,1 C -0,8 C -1,5 C 0,0 C 90 % 91 % 0 % 1024,7 hPa 0,0 l/m 0,0 km/h (0 Bft) W-SW 247 0 min 0,0 UV-I -1,9 C -1,5 C 0,0 km/h (0 Bft)
22.11.2011 23:25 -0,5 C 10,7 C 0,1 C -0,8 C -1,4 C 0,0 C 90 % 91 % 0 % 1024,7 hPa 0,0 l/m 0,0 km/h (0 Bft) W-SW 247 0 min 0,0 UV-I -1,9 C -1,4 C 0,0 km/h (0 Bft)
22.11.2011 23:30 -0,7 C 10,7 C 0,0 C -1,0 C -1,6 C 0,0 C 90 % 91 % 0 % 1024,7 hPa 0,0 l/m 0,0 km/h (0 Bft) W-SW 247 0 min 0,0 UV-I -2,1 C -1,6 C 0,0 km/h (0 Bft)
22.11.2011 23:35 -0,8 C 10,7 C -0,1 C -1,1 C -1,6 C 0,0 C 90 % 91 % 0 % 1024,7 hPa 0,0 l/m 0,0 km/h (0 Bft) W-SW 247 0 min 0,0 UV-I -2,2 C -1,6 C 0,0 km/h (0 Bft)
22.11.2011 23:40 -0,8 C 10,7 C -0,1 C -1,1 C -1,7 C 0,0 C 90 % 91 % 0 % 1024,7 hPa 0,0 l/m 0,0 km/h (0 Bft) W-SW 247 0 min 0,0 UV-I -2,2 C -1,7 C 0,0 km/h (0 Bft)
22.11.2011 23:45 -0,7 C 10,7 C -0,1 C -1,0 C -1,7 C 0,0 C 90 % 91 % 0 % 1024,7 hPa 0,0 l/m 0,0 km/h (0 Bft) W-SW 247 0 min 0,0 UV-I -2,1 C -1,7 C 0,0 km/h (0 Bft)
22.11.2011 23:50 -0,8 C 10,7 C -0,1 C -1,1 C -1,6 C 0,0 C 91 % 91 % 0 % 1024,7 hPa 0,0 l/m 0,0 km/h (0 Bft) S-SO 157 0 min 0,0 UV-I -2,1 C -1,6 C 0,0 km/h (0 Bft)
22.11.2011 23:55 -0,7 C 10,7 C -0,1 C -0,9 C -1,4 C 0,0 C 91 % 91 % 0 % 1024,7 hPa 0,0 l/m 0,0 km/h (0 Bft) S-SO 157 0 min 0,0 UV-I -2,0 C -1,4 C 0,0 km/h (0 Bft)
_ Min-Zeit 07:12 12:45 07:00 07:12 05:45 00:00 14:40 14:20 00:00 03:40 - 00:00 - - - 00:00 07:12 05:45 00:00
Minimum _ -2,3 C 9,6 C -1,5 C -2,5 C -3,0 C 0,0 C 64 % 73 % 0 % 1019,6 hPa - 0,0 km/h (0 Bft) - - - 0,0 UV-I -3,4 C -3,0 C 0,0 km/h (0 Bft)
_ Max-Zeit 14:35 00:00 14:20 14:25 14:25 11:30 10:15 10:25 11:12 23:00 00:00 14:12 - - 11:12 00:00 12:30 14:25 14:12
Maximum _ 13,5 C 11,0 C 12,7 C 16,7 C 16,7 C 6,0 C 94 % 94 % 100 % 1024,7 hPa 0,0 l/m 2,3 km/h
N (1 Bft)
- - 12 min 0,0 UV-I 7,7 C 16,7 C 8,2 km/h
N (2 Bft)
Durchschnitt _ 2,4 C 10,5 C 2,4 C 2,9 C 2,5 C 0,7 C 87 % 89 % 18 % 1021,4 hPa #0,0 l/m 0,2 km/h (0 Bft) W-SW - #2:25 h 0,0 UV-I 0,4 C 2,5 C 0,4 km/h (0 Bft)
2011 www.wetterstation-wechselburg.de